sat.trackr.live / text

‹ back to catalog

STARLINK-35699

NORAD 66557 · 2025-268A

PAYLOAD ACTIVE UNKNOWN

§ Identity

Operator
Country
US
Launch date
2025-11-21
Launch site
AFETR
Launch vehicle
Mass (kg)
RCS (m²)

Purposes: comms

External: N2YO · Heavens-Above · Gunter

§ Orbital elements

Epoch: 2026-09-20T06:31:26.444640Z

Period
94.27 min
Inclination
43.0006°
Eccentricity
0.0001065
Mean motion
15.27580897 rev/d
Perigee alt
482.3 km
Apogee alt
483.8 km
Semi-major
6,861.2 km
B*
2.1881e-4
RAAN
328.5943°
Arg perigee
254.2811°
Mean anomaly
105.7923°
Rev number
4,771

§ Raw data

STARLINK-356991 66557U 25268A   26263.27183385  .00005764  00000+0  21881-3 0  99922 66557  43.0006 328.5943 0001065 254.2811 105.7923 15.27580897 47711

JSON: /api/v1/satellites/66557 · /tle

For live sub-satellite position, see the globe view (requires WebGL).

§ Visibility from observer

Set your observer location to see the next 7 days of passes ≥ 10°. The values pass through the URL so the page stays shareable.

No JS? Fill the form by hand. The geolocation button needs JavaScript.